Regional Weather Roundup
Issued by NWS

Home | Current Version | Previous Version | Text Only | Print | Product List | Glossary Off
Versions: 1 2 3 4 5 6 7 8 9 10 11 12 13 14 15 16 17 18 19 20 21 22 23 24 25 26 27 28 29 30 31 32 33 34 35 36 37 38 39 40 41 42 43 44 45 46 47 48 49 50

000
ASUS43 KOAX 200410
RWRNE

WEATHER ROUNDUP FOR NEBRASKA
NATIONAL WEATHER SERVICE OMAHA NE
1000 PM CST SUN NOV 19 2017

NOTES: SATELLITE DATA IS BEING USED TO AUGMENT CLOUD COVER ABOVE
       12000 FEET.
       "FAIR" INDICATES FEW OR NO CLOUDS BELOW 12,000 FEET WITH NO
       SIGNIFICANT WEATHER AND/OR OBSTRUCTIONS TO VISIBILITY.


NEZ001>004-019>022-054>056-200500-
NEBRASKA PANHANDLE

CITY           SKY/WX    TMP DP  RH WIND       PRES   REMARKS
SCOTTSBLUFF    CLOUDY    44   8  23 W13       29.87F
ALLIANCE       CLOUDY    37  12  35 W13       29.84S WCI  29
CHADRON        CLOUDY    28  15  58 W10       29.80F WCI  19
GORDON         FAIR      35  17  46 SW5       29.79F WCI  31
KIMBALL        CLOUDY    34  11  39 CALM      29.92R
SIDNEY         CLOUDY    29  13  51 W12       29.91S WCI  19
$$

NEZ057>060-069>072-079>082-200500-
SOUTHWEST NEBRASKA

CITY           SKY/WX    TMP DP  RH WIND       PRES   REMARKS
NORTH PLATTE   CLOUDY    35  22  58 CALM      29.86F
IMPERIAL       CLOUDY    37  20  50 SW9       29.89F WCI  30
LEXINGTON      CLOUDY    44  27  51 SW12      29.87F
MCCOOK         CLOUDY    41  24  51 SW10      29.90S
OGALLALA       CLOUDY    27  20  77 W6        29.88F WCI  20
$$

NEZ005>010-023>029-035>040-094-200500-
NORTH CENTRAL NEBRASKA

CITY           SKY/WX    TMP DP  RH WIND       PRES   REMARKS
VALENTINE      CLOUDY    39  21  48 SW9       29.78F WCI  33
AINSWORTH      CLEAR     43  24  46 SW15      29.78F
BROKEN BOW     CLEAR     31  22  69 CALM      29.85F
O`NEILL        CLOUDY    35  26  71 S7        29.82F WCI  29
ORD            CLEAR     39  24  55 SW9       29.84F WCI  33
THEDFORD       CLOUDY    42  23  47 SW10      29.84S
$$

NEZ041-046>049-061>064-073>077-083>087-200500-
SOUTH CENTRAL NEBRASKA

CITY           SKY/WX    TMP DP  RH WIND       PRES   REMARKS
GRAND ISLAND   CLOUDY    44  25  47 S12       29.89F
AURORA         CLOUDY    38  24  55 SW8       29.90F WCI  32
HASTINGS       CLOUDY    41  22  46 S9        29.91F
HEBRON         CLOUDY    43  23  45 S8        29.93F
HOLDREGE       CLOUDY    41  27  57 SW10      29.90F
KEARNEY        CLOUDY    41  25  53 SW10      29.90F
YORK           CLOUDY    37  25  60 CALM      29.91F
$$

NEZ011>018-030>034-042>045-200500-
NORTHEAST NEBRASKA

CITY           SKY/WX    TMP DP  RH WIND       PRES   REMARKS
NORFOLK        CLOUDY    40  26  57 S13       29.85F WCI  32
ALBION         CLOUDY    37  25  62 S6        29.87F WCI  32
BLAIR          CLOUDY    41  27  57 S12       29.90F
COLUMBUS       CLOUDY    41  25  53 SW7       29.90F
FREMONT        CLOUDY    44  25  48 S9        29.90F
TEKAMAH        CLOUDY    34  25  69 SE7       29.90F WCI  28
WAYNE          CLOUDY    35  25  66 S8        29.86S WCI  28
$$

NEZ050>053-065>068-078-088>093-200500-
SOUTHEAST NEBRASKA

CITY           SKY/WX    TMP DP  RH WIND       PRES   REMARKS
LINCOLN        CLOUDY    40  24  53 S6        29.94F
OMAHA EPPLEY   CLOUDY    39  26  59 SE12      29.93F WCI  32
BEATRICE       CLOUDY    42  25  51 S9        29.95F
FALLS CITY     CLEAR     43  25  49 S12       29.98F
NEBRASKA CITY  CLOUDY    41  28  57 SW12      29.95F
PLATTSMOUTH    CLOUDY    40  27  59 S10       29.93F WCI  34
$$

NEZ044-045-051>053-067-200500-
OMAHA AREA

CITY           SKY/WX    TMP DP  RH WIND       PRES   REMARKS
OMAHA EPPLEY   CLOUDY    39  26  59 SE12      29.93F WCI  32
BLAIR          CLOUDY    41  27  57 S12       29.90F
FREMONT        CLOUDY    44  25  48 S9        29.90F
MILLARD        CLOUDY    36  28  72 CALM      29.93F
OFFUTT AFB     CLOUDY    33  25  73 E3        29.93F
PLATTSMOUTH    CLOUDY    40  27  59 S10       29.93F WCI  34
WAHOO          FAIR      34  25  68 S6        29.91F WCI  29
$$




USA.gov is the U.S. government's official web portal to all federal, state and local government web resources and services.